PIA200 YMML-YSSY

Flight info

Callsign PIA200
Flight time N/A
Altitude 39000
Route YMML/27 3508S14847E RIVET4/16R
Aircraft B77L/H-SDE1E2E3FGHIJ2J3J4J5M1RWXY/LB1D1

Departure

Time N/A
Airport Melbourne Airport (YMML)

Arrival

Time 2026-04-20 12:14
Airport Sydney Kingsford Smith International Airport (YSSY)
Time Latitude Longitude Altitude Speed Heading
2026-04-20 11:54 -34.05197 150.93938 7471 ft 312 kts 65°
2026-04-20 11:55 -34.04171 150.96213 7126 ft 305 kts 66°
2026-04-20 11:55 -34.03167 150.98436 6787 ft 299 kts 66°
2026-04-20 11:55 -34.02226 151.00517 6441 ft 294 kts 66°
2026-04-20 11:55 -34.01142 151.02550 6075 ft 287 kts 50°
2026-04-20 11:56 -33.99502 151.03825 6005 ft 278 kts 21°
2026-04-20 11:56 -33.97640 151.04042 5984 ft 264 kts 351°
2026-04-20 11:56 -33.96015 151.03214 5980 ft 250 kts 318°
2026-04-20 11:56 -33.94876 151.01685 6005 ft 245 kts 304°
2026-04-20 11:57 -33.93847 151.00031 6009 ft 248 kts 303°
2026-04-20 11:57 -33.92816 150.98366 6009 ft 249 kts 303°
2026-04-20 11:57 -33.91631 150.96874 5986 ft 249 kts 327°
2026-04-20 11:57 -33.90059 150.96044 6011 ft 247 kts 341°
2026-04-20 11:58 -33.88973 150.95616 6004 ft 249 kts 342°
2026-04-20 11:58 -33.87315 150.94989 6003 ft 251 kts 342°
2026-04-20 11:58 -33.85643 150.94365 6005 ft 252 kts 342°
2026-04-20 11:58 -33.83940 150.93732 6008 ft 253 kts 342°
2026-04-20 11:59 -33.82272 150.93115 6002 ft 254 kts 342°
2026-04-20 11:59 -33.80575 150.92488 5987 ft 250 kts 342°
2026-04-20 11:59 -33.78929 150.91878 5981 ft 246 kts 342°
2026-04-20 11:59 -33.77311 150.91281 5978 ft 240 kts 342°
2026-04-20 12:00 -33.75724 150.90696 5983 ft 237 kts 342°
2026-04-20 12:00 -33.74150 150.90115 6015 ft 237 kts 342°
2026-04-20 12:00 -33.73640 150.89926 6045 ft 237 kts 342°
2026-04-20 12:01 -33.69103 150.88243 5901 ft 242 kts 342°
2026-04-20 12:01 -33.67489 150.87643 5640 ft 242 kts 342°
2026-04-20 12:01 -33.65903 150.87054 5372 ft 235 kts 342°
2026-04-20 12:01 -33.64358 150.86478 5118 ft 231 kts 342°
2026-04-20 12:02 -33.62843 150.85934 5033 ft 224 kts 349°
2026-04-20 12:02 -33.61299 150.86066 5012 ft 226 kts 25°
2026-04-20 12:02 -33.60080 150.87187 5007 ft 221 kts 60°
2026-04-20 12:02 -33.59602 150.88862 4996 ft 209 kts 95°
2026-04-20 12:03 -33.60000 150.90457 4994 ft 197 kts 130°
2026-04-20 12:03 -33.61072 150.91387 4991 ft 190 kts 161°
2026-04-20 12:03 -33.62230 150.92130 4993 ft 196 kts 136°
2026-04-20 12:03 -33.62716 150.93082 5008 ft 204 kts 113°
2026-04-20 12:04 -33.63703 151.00481 4981 ft 201 kts 102°
2026-04-20 12:05 -33.63898 151.02142 4986 ft 201 kts 103°
2026-04-20 12:05 -33.64086 151.03804 4995 ft 202 kts 103°
2026-04-20 12:05 -33.64308 151.05473 5002 ft 201 kts 112°
2026-04-20 12:05 -33.65037 151.06850 5000 ft 195 kts 137°
2026-04-20 12:06 -33.66035 151.07964 4974 ft 196 kts 142°
2026-04-20 12:06 -33.67066 151.09047 4679 ft 197 kts 142°
2026-04-20 12:06 -33.68086 151.10112 4296 ft 190 kts 142°
2026-04-20 12:06 -33.69065 151.11133 3917 ft 183 kts 142°
2026-04-20 12:07 -33.70128 151.11829 3502 ft 174 kts 171°
2026-04-20 12:07 -33.71293 151.11925 3152 ft 160 kts 175°
2026-04-20 12:07 -33.72337 151.12023 2996 ft 150 kts 174°
2026-04-20 12:07 -33.73396 151.12183 2998 ft 153 kts 171°
2026-04-20 12:08 -33.74420 151.12395 2987 ft 146 kts 169°
2026-04-20 12:08 -33.75400 151.12629 2978 ft 141 kts 168°
2026-04-20 12:08 -33.76055 151.12789 2983 ft 148 kts 168°
2026-04-20 12:08 -33.77070 151.13043 3009 ft 152 kts 167°
2026-04-20 12:09 -33.78084 151.13302 2980 ft 145 kts 167°
2026-04-20 12:09 -33.79080 151.13561 2839 ft 149 kts 168°
2026-04-20 12:09 -33.80094 151.13824 2650 ft 149 kts 169°
2026-04-20 12:09 -33.81097 151.14085 2455 ft 146 kts 168°
2026-04-20 12:10 -33.82077 151.14338 2256 ft 143 kts 168°
2026-04-20 12:10 -33.83068 151.14596 2074 ft 149 kts 169°
2026-04-20 12:10 -33.84081 151.14859 1894 ft 145 kts 167°
2026-04-20 12:10 -33.85003 151.15339 1773 ft 149 kts 150°
2026-04-20 12:11 -33.85851 151.16064 1692 ft 149 kts 153°
2026-04-20 12:11 -33.86804 151.16504 1526 ft 147 kts 167°
2026-04-20 12:11 -33.87824 151.16729 1247 ft 146 kts 168°
2026-04-20 12:11 -33.88816 151.17041 1005 ft 149 kts 164°
2026-04-20 12:12 -33.89776 151.17423 916 ft 142 kts 167°
2026-04-20 12:12 -33.90717 151.17703 729 ft 137 kts 168°
2026-04-20 12:12 -33.91595 151.17974 496 ft 124 kts 172°
2026-04-20 12:12 -33.92463 151.18168 398 ft 132 kts 172°
2026-04-20 12:13 -33.93371 151.18409 385 ft 138 kts 170°
2026-04-20 12:13 -33.94303 151.18663 285 ft 140 kts 169°
2026-04-20 12:13 -33.95236 151.18908 53 ft 132 kts 171°
2026-04-20 12:13 -33.96053 151.19110 33 ft 101 kts 167°
2026-04-20 12:14 -33.96453 151.19213 30 ft 24 kts 168°
2026-04-20 12:14 -33.96605 151.19204 29 ft 16 kts 194°
2026-04-20 12:14 -33.96668 151.19183 29 ft 3 kts 198°
2026-04-20 12:15 -33.96669 151.19183 29 ft 1 kts 198°
2026-04-20 12:16 -33.96705 151.19153 32 ft 5 kts 239°
2026-04-20 12:16 -33.96702 151.19093 33 ft 12 kts 296°
2026-04-20 12:16 -33.96618 151.19057 34 ft 20 kts 348°
2026-04-20 12:16 -33.96426 151.19007 34 ft 33 kts 348°
2026-04-20 12:17 -33.96209 151.18950 35 ft 29 kts 347°
2026-04-20 12:17 -33.95992 151.18895 35 ft 27 kts 348°
2026-04-20 12:17 -33.95808 151.18846 34 ft 19 kts 347°
2026-04-20 12:17 -33.95644 151.18805 34 ft 25 kts 347°
2026-04-20 12:18 -33.95461 151.18757 34 ft 31 kts 347°
2026-04-20 12:18 -33.95339 151.18725 34 ft 19 kts 347°
2026-04-20 12:18 -33.95234 151.18671 34 ft 19 kts 327°
2026-04-20 12:18 -33.95132 151.18563 35 ft 6 kts 303°
2026-04-20 12:19 -33.95114 151.18486 35 ft 14 kts 281°
2026-04-20 12:19 -33.95123 151.18380 35 ft 0 kts 259°
2026-04-20 12:19 -33.95130 151.18342 35 ft 10 kts 257°
2026-04-20 12:19 -33.95149 151.18239 35 ft 11 kts 257°
2026-04-20 12:20 -33.95155 151.18203 35 ft 0 kts 257°
2026-04-20 12:23 -33.95163 151.18162 35 ft 16 kts 257°
2026-04-20 12:24 -33.95188 151.18024 35 ft 16 kts 257°
2026-04-20 12:24 -33.95207 151.17922 34 ft 6 kts 257°
2026-04-20 12:24 -33.95214 151.17881 34 ft 0 kts 257°
2026-04-20 12:25 -33.95217 151.17869 34 ft 4 kts 257°
2026-04-20 12:25 -33.95228 151.17809 34 ft 10 kts 258°
2026-04-20 12:26 -33.95246 151.17704 33 ft 10 kts 258°
2026-04-20 12:26 -33.95249 151.17687 33 ft 0 kts 258°
2026-04-20 12:27 -33.95252 151.17671 33 ft 5 kts 258°
2026-04-20 12:27 -33.95262 151.17611 33 ft 9 kts 263°
2026-04-20 12:27 -33.95221 151.17551 34 ft 11 kts 342°
2026-04-20 12:27 -33.95129 151.17525 34 ft 16 kts 348°
2026-04-20 12:28 -33.95003 151.17493 34 ft 20 kts 348°
2026-04-20 12:28 -33.94868 151.17458 34 ft 19 kts 347°
2026-04-20 12:28 -33.94763 151.17430 33 ft 15 kts 347°
2026-04-20 12:28 -33.94663 151.17404 35 ft 15 kts 348°
2026-04-20 12:29 -33.94557 151.17377 35 ft 15 kts 348°
2026-04-20 12:29 -33.94468 151.17353 35 ft 9 kts 347°
2026-04-20 12:29 -33.94400 151.17335 35 ft 11 kts 347°
2026-04-20 12:29 -33.94319 151.17315 35 ft 13 kts 348°
2026-04-20 12:30 -33.94276 151.17303 34 ft 2 kts 347°
2026-04-20 12:30 -33.94264 151.17300 34 ft 0 kts 347°
2026-04-20 12:32 -33.94265 151.17300 34 ft 0 kts 347°
2026-04-20 12:33 -33.94264 151.17300 34 ft 1 kts 347°
2026-04-20 12:33 -33.94231 151.17292 34 ft 9 kts 347°
2026-04-20 12:33 -33.94159 151.17273 33 ft 13 kts 347°
2026-04-20 12:34 -33.94050 151.17244 34 ft 19 kts 348°
2026-04-20 12:34 -33.93912 151.17209 33 ft 21 kts 348°
2026-04-20 12:34 -33.93784 151.17176 33 ft 14 kts 348°
2026-04-20 12:34 -33.93722 151.17143 34 ft 8 kts 313°
2026-04-20 12:35 -33.93709 151.17064 34 ft 10 kts 275°
2026-04-20 12:35 -33.93720 151.16990 34 ft 7 kts 256°
2026-04-20 12:35 -33.93729 151.16949 34 ft 3 kts 255°
2026-04-20 12:35 -33.93731 151.16940 34 ft 0 kts 255°